Showing default

LEMUR 2 GREENBERG, 42837

Orbit data source: Space-Track

LEMUR 2 GREENBERG, 42837 is a payload satellite owned by Spire (US) in SSO that was launched on Fri, 14 Jul 2017 UTC via a SOYUZ-2-1A launch vehicle from the Tyuratam Missile And Space Complex (TTMTR). Payload-class satellites include a variety of spacecraft equipped with specific instruments for various scientific and technological missions. These include communications satellites like Starlink; space stations such as the ISS; scientific satellites like the Hubble; Earth observation satellites from companies like Planet Labs, Umbra, and HawkEye 360; GPS; miniature CubeSats for education and research; and military/defense satellites.

Loading next visibility...
Identifier
42837, 2017-042N
Orbit
SSO
Country
Flag of USUS
Related business
Manufacturer
Spire/Glasgow
Mission
Operational Commercial Com/MetRO
Bus & Motor
CUBESAT 3U, Unknown motor
Mass
4 kg wet, 4 kg dry
Launch date (UTC)
2017-07-14 (8 years ago)
Launch vehicle
SOYUZ-2-1A
Launch site
Tyuratam Missile And Space Complex (TTMTR)
Object type
Payload
Rocket body
Debris
Shape & HBR
Box, 0.5 m
Radar Cross Section
0.093 m², Small (<0.1 m²)

Expand to show TLE details & history
Last TLE update: 17 hours ago

TLE from 17 hours ago
0 LEMUR 2 GREENBERG
1 42837U 17042N   25287.25951634  .00019371  00000-0  85383-3 0  9998
2 42837  97.3728 105.8207 0011000 149.5336 210.6541 15.21789353450864
Epoch: 2025-10-14T06:13Z
TLE epoch observation values (Epoch: 2025-10-14T06:13:42.211Z)
Latitude
-0.00009°
Longitude
-10.65568°
Altitude
510.05 km
Speed
7.605 km/s
True Right ascension
07h 03m 16s
True Declination
0° 00' 00"
Sunlit
Object was in daylight at epoch
Visualization orbit readout
Latitude
Unknown
Longitude
Unknown
Altitude
Unknown
Speed
Unknown
Apparent Right ascension
Unknown
Apparent Declination
Unknown
Sunlit
N/A
Visualization observer readout
Local Sidereal Time
17:50:23
Azimuth
Unknown
Elevation
Unknown
Doppler factor
Unknown
Orbital elements
Apogee altitude
504.968 km
Perigee altitude
489.842 km
Semi-major axis
6,875.542 km
Eccentricity
0.0011
Inclination
97.3728°
RAAN
105.8207°
Arg. of periapsis
149.5336°
True anomaly
210.58991°
Mean anomaly
210.6541°
Eccentric anomaly
210.622°
Mean motion
3.807 °/min
Orbital period
94.56 mins
BSTAR
0.00085383
Loading maneuver chart data...
Computing Atmospheric mass density...
Loading historical data...
Loading historical data...
Loading historical data...
Loading historical data...
Loading historical data...
Loading historical data...
Loading historical data...

Documentation

Showing up to 5 results
|